Regional Weather Roundup
Issued by NWS

Home | Current Version | Previous Version | Text Only | Print | Product List | Glossary Off
Versions: 1 2 3 4 5 6 7 8 9 10 11 12 13 14 15 16 17 18 19 20 21 22 23 24 25 26 27 28 29 30 31 32 33 34 35 36 37 38 39 40 41 42 43 44 45 46 47 48 49 50

000
ASUS45 KTFX 230719
RWRMT
MONTANA HOURLY WEATHER ROUNDUP
NATIONAL WEATHER SERVICE GREAT FALLS MT
1219 AM MST SUN NOV 23 2014

NOTE: "FAIR" INDICATES FEW OR NO CLOUDS BELOW 12000 FEET WITH NO
SIGNIFICANT WEATHER AND/OR OBSTRUCTIONS TO VISIBILITY.

* THESE STATIONS ARE NOT UNDER NWS QUALITY CONTROL. THEY DO NOT
   REPORT WEATHER SUCH AS PRECIPITATION OR FOG.

MTZ001>007-043-230800-
WEST OF THE DIVIDE
CITY           SKY/WX    TMP DP  RH WIND       PRES   REMARKS
KALISPELL      PTCLDY    30  25  82 SW5       29.77R WCI  25
MISSOULA       CLOUDY    36  27  70 N7        29.85R WCI  30
BUTTE          CLOUDY    27  25  92 N6        29.78R WCI  20
MULLAN PASS    FOG       25  23  92 NW8G18    29.82R VSB 1/2  WCI  16
* EUREKA APT   MOCLDY    39  21  48 CALM      29.81R
* HAMILTON APT CLOUDY    36  27  70 SE6       29.86R WCI  31
* LIBBY APT    PTCLDY    30  25  82 S3        29.86R
* LINCOLN      N/A       30  24  78 W4G12      N/A
* LOOKOUT PASS N/A       29  27  92 NE6G11     N/A   WCI  23
* POLSON       N/A       32  22  67 N2G7       N/A
* RONAN APT    PTCLDY    32  27  82 N/A        N/A
* SEELEY LAKE  N/A       31  26  82 S3G11      N/A
* THOMP F APT  MOCLDY    21  13  71 N9G14      N/A   WCI  11
* YAAK HILL    N/A       31  25  78 NE2        N/A
$$

MTZ008-052>055-230800-
SOUTHWEST MONTANA
CITY           SKY/WX    TMP DP  RH WIND       PRES   REMARKS
BOZEMAN        CLOUDY    34  21  59 W8        29.77R WCI  27
DILLON         CLOUDY    28  19  69 SW14      29.79R WCI  17
* W YELLOWSTON CLOUDY    20  15  81 SW5G11     N/A   WCI  13
* ENNIS APT    MOCLDY    34  16  48 SW6        N/A   WCI  29
* THREE FORKS  MOCLDY    34  21  59 N/A        N/A
* BOULDER HILL N/A       29  13  51 N1G6       N/A
* MONIDA PASS  N/A       18   6  59 E2         N/A
* RAYNOLDS PAS N/A       20   3  47 S3         N/A
* WHITEHALL    N/A       29  24  82 W3         N/A
* WISE RIVER   N/A       29  19  66 NW7        N/A   WCI  22
$$

MTZ009>010-012-014-046-048-049-054-230800-
EAST SLOPES AND CENTRAL MONTANA
CITY           SKY/WX    TMP DP  RH WIND       PRES   REMARKS
CUT BANK       CLOUDY    30  18  61 W17       29.65R WCI  18
GREAT FALLS    PTCLDY    32  19  59 W16       29.68R WCI  21
HELENA         PTCLDY    36  23  59 W17G24    29.75R WCI  26
MALMSTROM AFB  PTCLDY    34  19  54 W15       29.70R WCI  24
* CONRAD       PTCLDY    34  19  54 SW8        N/A   WCI  27
* DEARBORN     N/A       38  20  48 S16G23     N/A   WCI  29
* EAST GLACIER N/A       30  15  54 NW11G26    N/A   WCI  21
* MONARCH      N/A       29  12  49 W16G24     N/A   WCI  17
* PENDROY      N/A       31  16  54 NW18G23    N/A   WCI  19
* ROGERS PASS  N/A       26  22  85 E6G16      N/A   WCI  19
* SAINT MARY   N/A       31  17  56 SW11G22    N/A   WCI  22
* SWEET GRASS  N/A       31  31 100 VRB14G19    N/A   WCI  21
* WHITE SULPH  N/A       31  16  54 NW13G21    N/A   WCI  21
$$

MTZ011-013-016-021-035-040-045-047-050-051-230800-
NORTH CENTRAL MONTANA
CITY           SKY/WX    TMP DP  RH WIND       PRES   REMARKS
HAVRE          CLOUDY    36  30  79 W15       29.62R WCI  27
LEWISTOWN      CLOUDY    36  18  48 W14       29.63R WCI  27
* CHINOOK      MOCLDY    36  30  79 W18G24    29.60R WCI  26
* FORT BENTON  MOCLDY    37  19  48 W10       29.68R WCI  30
* CHESTER      N/A       35  27  73 NW5        N/A   WCI  31
* DENTON       N/A       37  17  44 W19        N/A   WCI  27
* GEYSER       N/A       34  14  44 W22G28     N/A   WCI  22
* JUDITH GAP   N/A       28  12  51 W9G14      N/A   WCI  19
* LOMA         N/A       40  22  49 W14G26     N/A   WCI  32
$$

MTZ017>020-022>027-061-062-230800-
NORTHEAST MONTANA
CITY           SKY/WX    TMP DP  RH WIND       PRES   REMARKS
GLASGOW        CLOUDY    37  28  70 W31G39    29.41R WCI  24
GLENDIVE       PTCLDY    36  30  79 W24G35    29.44R WCI  24
JORDAN         PTCLDY    36  28  73 W23G36    29.49R WCI  24
SIDNEY         PTCLDY    37  30  76 W18G30    29.39R WCI  27
WOLF POINT     CLOUDY    39  30  70 W22G32    29.40R WCI  29
* BEAVER HILL  N/A       35  31  85 SW21G34    N/A   WCI  24
* CIRCLE       N/A       38  32  79 SW17G23    N/A   WCI  29
* LINDSAY DVD  N/A       34  30  85 SW27G39    N/A   WCI  21
* NAVAJO       N/A       35  28  76 W29G42     N/A   WCI  22
* PLENTYWOOD A PTCLDY    36  28  73 W29G39    29.26R WCI  23
* POPLAR APT   CLOUDY    37  32  82 N/A       29.37R
* SACO         N/A       38  29  70 W27G38     N/A   WCI  26
* SCOBEY APT   PTCLDY    34  25  70 W29G36     N/A   WCI  20
$$

MTZ028>042-056>058-230800-
SOUTHCENTRAL AND SOUTHEAST MONTANA
CITY           SKY/WX    TMP DP  RH WIND       PRES   REMARKS
BAKER          CLOUDY    36  28  73 W21G30    29.49R WCI  25
BILLINGS       PTCLDY    36  16  44 W14       29.65R WCI  27
LIVINGSTON     CLOUDY    37  18  46 W15G22    29.72R WCI  28
MILES CITY     CLOUDY    37  28  70 W28G38    29.53R WCI  25
* BIG TIMBER A CLOUDY    36  18  48 W32G39    29.65R WCI  23
* FORSYTH APT  CLOUDY    39  27  62 W12G18    29.60R WCI  32
* LAUREL APT   PTCLDY    34  12  40 N/A        N/A
* ALZADA       N/A       36  27  70 W10G15     N/A   WCI  29
* HYSHAM       N/A       37  14  39 W7G13      N/A   WCI  32
* LAME DEER    N/A       34  15  46 NW11       N/A   WCI  26
* REED POINT   N/A       40  18  41 W20G26     N/A   WCI  30
* ROSCOE HILL  N/A       32   4  30 NW6G13     N/A   WCI  26
$$

REGIONAL REPORTS...DAKOTAS
CITY           SKY/WX    TMP DP  RH WIND       PRES   REMARKS
WILLISTON      CLOUDY    39  32  76 W18G28    29.32R WCI  30
DICKINSON      CLOUDY    37  28  70 W21       29.39R WCI  26
BEACH          CLOUDY    34  32  92 W21G28    29.45R WCI  22
CROSBY         CLOUDY    36  32  85 W17G22    29.27R WCI  26
TIOGA          CLOUDY    37  36  96 W23G33    29.31S WCI  26
BISMARCK       CLOUDY    36  34  92 W6        29.39R WCI  31
GRAND FORKS    FOG       34  32  92 S12       29.34F WCI  25
FARGO          FOG       36  34  92 S13       29.37F VSB 3    WCI  27
BUFFALO SD     CLOUDY    39  23  53 W21       29.43R WCI  29
RAPID CITY     MOCLDY    39  27  62 N16       29.53R WCI  30
$$

REGIONAL REPORTS...WYOMING/IDAHO/WASHINGTON
CITY           SKY/WX    TMP DP  RH WIND       PRES   REMARKS
GILLETTE       CLOUDY    34  18  52 NW16      29.61R WCI  24
SHERIDAN       PTCLDY    28  16  61 W9        29.64R WCI  19
CODY           MOCLDY    36  10  34 W18G26    29.68R WCI  26
YELLOWSTONE LA CLOUDY    10   7  88 CALM      29.75S
SALMON         CLOUDY    30  28  92 CALM      29.90R VSB 2 1/2
MULLAN PASS    FOG       25  23  92 NW8G18    29.82S VSB 1/2  WCI  16
SAND POINT     MOCLDY    36  32  85 S7        29.92R WCI  30
SPOKANE        FAIR      30  28  92 SW13      29.95R WCI  20
$$

REGIONAL REPORTS...ALBERTA
CITY           SKY/WX    TMP DP  RH WIND       PRES   REMARKS
CALGARY        MOCLDY    28  23  81 E5        29.64R WCI  22
LETHBRIDGE     CLOUDY    32  30  92 W13       29.68R WCI  22
MEDICINE HAT   CLOUDY    28  25  89 NW10G17   29.65R WCI  19
EDMONTON       LGT SNOW  19  14  81 NW9       29.68R WCI   8
WATERTON GATE  N/A       34  16  48 W16G23     N/A   WCI  24
CARDSTON       N/A       32  18  56 W12        N/A   WCI  23
MILK RIVER     N/A       30  30 100 N13        N/A   WCI  20
$$

REGIONAL REPORTS...SASKATCHEWAN
CITY           SKY/WX    TMP DP  RH WIND       PRES   REMARKS
SWIFT CURRENT  LGT SNOW  18  16  92 NW23G35   29.43R WCI   1
REGINA         LGT SNOW  32  30  92 W10       29.17R WCI  24
VAL MARIE      N/A       28  23  81 NW29G35    N/A   WCI  12
ASSINIBOIA     N/A       23  21  92 NW26G32    N/A   WCI   6
CORONACH       N/A       30  25  82 W31G39     N/A   WCI  15

$$




USA.gov is the U.S. government's official web portal to all federal, state and local government web resources and services.